Wind_Speed
18 19 20 20 21 21 22 23 23 24 25 26 27 28 29 30 32 33 34 36 37 38 39 41 42 42 42 42 42 43 43 43 43 42 41 43 44 43
19 20 21 21 22 22 23 24 24 25 26 27 28 29 30 31 31 33 35 36 37 38 40 42 43 44 45 45 45 45 45 44 44 43 43 43 43 43
21 21 22 23 23 24 24 25 25 26 27 28 29 30 30 31 32 33 34 36 37 39 41 42 43 44 45 46 47 47 47 46 45 45 44 45 44 43
22 23 24 24 25 25 26 26 26 27 28 29 30 30 31 32 32 33 34 35 37 39 41 43 44 45 46 46 47 47 47 47 47 47 47 47 47 45
24 25 26 26 26 27 27 28 28 28 29 30 31 32 33 33 34 34 35 36 37 38 40 42 44 46 47 47 48 48 48 49 48 47 48 48 48 48
26 27 27 27 28 29 29 30 30 30 30 31 32 33 34 35 35 35 36 36 37 39 40 41 43 45 47 49 49 49 50 51 51 50 50 49 49 49
28 29 29 29 30 30 31 32 32 32 32 33 33 34 35 36 36 36 36 37 37 39 40 41 42 44 45 47 49 50 51 51 52 51 51 51 51 51
30 30 31 31 31 32 33 33 34 34 34 34 35 35 36 36 36 36 37 37 37 39 39 40 42 42 44 46 47 49 50 52 52 52 52 52 52 52
31 32 32 33 33 34 35 35 35 35 36 36 36 37 37 37 37 37 37 37 37 39 39 39 41 42 43 45 46 47 49 50 51 52 52 52 53 53
33 34 34 35 36 37 37 37 37 37 37 38 38 37 37 38 38 37 37 37 38 38 39 39 40 41 42 44 45 47 48 49 50 52 52 52 52 53
35 36 36 37 38 38 39 38 39 39 39 39 38 38 38 38 38 37 37 37 37 37 38 39 39 40 41 42 43 44 46 48 50 51 51 52 53 53
37 38 39 39 40 40 40 40 40 40 40 40 40 39 39 39 38 37 37 37 37 37 38 39 39 39 40 41 42 44 45 47 49 50 51 51 52 53
39 40 41 41 42 42 42 42 42 42 41 41 41 40 40 39 39 38 38 37 37 36 38 38 39 39 40 40 41 43 44 46 47 50 51 52 52 53
42 42 43 44 44 45 44 44 44 43 42 42 41 41 41 40 40 39 38 37 37 37 38 39 39 39 40 40 40 42 43 45 46 47 49 51 52 52
44 44 45 46 46 47 46 46 46 45 44 43 42 41 41 41 40 39 38 38 37 37 37 38 39 39 40 40 40 41 42 43 44 45 47 49 50 51
46 47 47 48 48 49 49 48 48 47 45 44 43 42 42 41 40 40 39 38 37 37 37 38 38 39 39 40 40 41 41 42 43 44 45 47 49 50
49 49 50 50 50 51 50 49 48 47 46 45 44 42 41 41 40 39 38 37 36 36 36 37 37 38 38 38 38 39 40 41 42 43 44 45 47 48
51 52 53 53 53 52 50 49 47 46 45 44 43 42 40 39 39 38 37 36 35 35 35 35 36 36 36 36 37 37 38 39 40 42 43 43 44 46
54 54 55 55 54 52 50 48 47 46 45 43 42 40 39 38 37 36 35 35 34 33 33 33 34 34 34 34 34 36 36 37 38 40 41 41 42 43
55 55 56 55 53 51 49 47 46 44 43 42 40 39 37 36 35 35 34 33 32 31 31 31 31 32 32 32 32 34 35 35 36 37 39 40 41 42
56 56 55 53 51 49 47 45 43 42 41 39 38 36 35 35 34 33 32 31 31 30 30 30 30 31 31 31 31 32 33 34 35 36 38 39 40 41
54 54 52 49 47 46 44 42 40 39 38 36 35 34 33 33 32 32 31 30 30 29 28 28 29 29 29 29 29 30 32 33 34 35 37 38 38 39
51 50 48 45 43 41 39 37 36 35 34 32 31 31 31 30 29 29 29 28 28 28 27 27 27 28 28 28 28 29 30 32 33 34 34 36 37 38
Wind_Direction
311 310 309 307 305 303 301 299 295 292 288 285 282 279 276 273 269 266 264 262 259 257 254 252 251 250 248 248 248 246 245 244 244 244 242 242 241 239
310 308 308 307 306 305 303 301 298 295 292 289 286 283 280 277 272 268 265 263 261 259 256 254 252 250 249 248 248 248 247 246 244 244 243 242 241 241
310 310 309 308 307 305 304 302 299 297 295 292 290 287 284 281 277 272 268 265 262 259 257 255 253 252 250 249 248 247 247 246 245 244 243 242 242 241
310 309 309 308 307 306 304 303 301 299 296 294 292 290 287 284 281 277 272 268 265 262 259 256 255 253 251 250 248 247 246 245 245 245 243 242 242 241
309 309 308 308 307 307 305 304 302 300 298 296 294 292 289 286 283 280 276 271 267 265 262 259 256 254 252 251 249 247 246 245 244 244 244 243 242 241
308 308 308 307 307 307 306 305 303 301 300 299 296 294 291 289 286 282 279 274 270 266 264 261 258 255 253 251 250 248 246 244 243 244 243 243 242 240
306 306 306 307 307 307 306 305 304 302 301 300 299 296 293 291 288 284 281 277 273 269 265 263 260 258 255 253 250 249 247 246 244 244 243 242 242 241
305 305 305 306 307 307 307 306 305 304 303 301 300 298 295 292 289 286 282 279 275 271 268 264 262 259 256 254 251 249 247 246 245 244 243 242 241 241
304 304 305 305 306 306 306 305 305 304 303 302 301 299 296 293 290 287 284 280 276 273 270 266 263 260 257 254 251 249 248 246 245 244 244 242 241 240
303 304 304 305 306 306 306 305 304 304 303 302 301 299 296 294 291 288 285 281 278 275 271 267 264 262 258 255 252 249 248 247 245 244 243 243 242 241
302 303 303 304 305 305 305 305 304 303 303 302 301 299 296 294 292 289 286 282 279 276 272 268 265 263 260 257 254 251 248 247 245 244 243 242 241 241
301 302 303 304 304 304 304 304 303 302 302 301 299 298 296 293 291 289 286 283 280 276 272 269 266 263 260 258 255 253 250 248 246 245 243 242 241 241
300 301 301 302 303 303 303 303 302 301 301 299 298 297 295 293 290 288 286 284 281 276 273 270 268 264 261 258 256 254 252 250 247 245 244 243 242 241
299 300 301 301 302 302 302 301 301 300 299 298 296 295 294 292 290 288 286 283 280 277 274 272 269 266 262 259 257 255 253 251 248 245 243 242 241 241
299 299 300 300 301 301 301 300 300 299 298 296 295 294 292 291 289 287 285 282 280 278 275 272 270 267 263 261 258 256 254 251 248 246 243 242 240 240
298 298 299 299 300 301 300 299 299 298 297 295 294 293 292 290 288 286 285 282 281 278 276 273 270 268 264 261 258 256 254 252 249 247 244 242 240 239
298 298 298 299 299 300 299 298 298 297 295 294 293 292 291 289 287 286 284 282 281 280 277 274 271 268 265 261 258 255 253 251 250 247 244 241 239 238
298 298 298 299 299 299 298 297 296 295 293 292 290 289 288 287 286 285 283 281 281 280 278 274 271 268 265 260 257 255 252 251 248 246 243 241 238 237
297 298 299 298 298 297 296 295 294 292 291 289 288 287 286 285 284 283 282 281 280 279 277 274 271 268 265 260 256 254 252 249 247 244 242 240 238 236
298 298 299 298 296 295 294 293 291 290 288 287 285 284 283 283 282 281 281 280 280 277 275 273 271 268 265 260 255 252 251 249 247 244 241 239 237 236
298 298 298 297 295 293 292 290 288 287 287 286 284 282 282 282 280 280 279 278 277 276 274 273 270 267 265 261 256 252 250 248 245 243 241 239 237 236
298 298 298 296 294 292 290 287 286 286 286 284 282 280 281 281 280 279 279 276 275 274 273 271 269 266 263 259 256 252 249 247 245 243 241 239 237 235
299 298 296 295 293 291 288 286 285 284 284 282 280 280 280 279 279 279 278 274 273 271 270 270 268 265 262 259 255 252 248 246 244 243 241 239 237 235
Height
5846 5843 5841 5839 5836 5834 5831 5829 5827 5825 5823 5822 5820 5819 5818 5818 5817 5817 5817 5817 5818 5819 5821 5823 5825 5827 5830 5833 5835 5838 5841 5844 5847 5850 5854 5858 5861 5865
5841 5839 5836 5834 5831 5828 5826 5823 5821 5819 5817 5814 5813 5811 5810 5809 5808 5808 5808 5808 5808 5809 5810 5812 5814 5817 5819 5822 5825 5827 5830 5834 5837 5840 5844 5848 5852 5856
5836 5834 5831 5828 5825 5822 5820 5817 5815 5812 5810 5807 5805 5803 5801 5800 5799 5799 5798 5798 5798 5799 5800 5801 5803 5805 5808 5811 5814 5816 5819 5823 5826 5830 5833 5838 5842 5846
5831 5828 5825 5822 5819 5816 5813 5811 5808 5805 5803 5800 5797 5795 5793 5791 5790 5789 5788 5788 5788 5788 5789 5790 5792 5794 5796 5799 5802 5805 5808 5812 5816 5819 5823 5827 5831 5835
5825 5822 5819 5816 5813 5810 5807 5803 5800 5797 5795 5792 5789 5786 5783 5781 5780 5778 5777 5777 5777 5777 5777 5778 5780 5782 5784 5787 5789 5793 5796 5800 5804 5808 5812 5816 5820 5825
5819 5816 5813 5810 5806 5803 5799 5796 5792 5789 5786 5783 5780 5777 5774 5771 5769 5768 5767 5766 5765 5765 5765 5766 5767 5769 5771 5774 5777 5780 5783 5787 5791 5795 5800 5804 5808 5813
5812 5809 5806 5802 5799 5795 5792 5788 5784 5781 5777 5774 5771 5768 5765 5761 5759 5757 5755 5754 5754 5753 5753 5754 5755 5756 5758 5760 5763 5767 5770 5774 5778 5782 5787 5792 5796 5801
5805 5801 5798 5795 5791 5787 5783 5779 5776 5772 5768 5765 5761 5758 5754 5751 5748 5746 5744 5743 5742 5742 5741 5742 5742 5744 5745 5747 5750 5753 5757 5761 5765 5769 5774 5779 5784 5788
5797 5793 5790 5786 5782 5779 5775 5771 5767 5763 5759 5755 5752 5747 5744 5741 5738 5735 5733 5732 5731 5729 5729 5729 5730 5731 5732 5734 5737 5740 5743 5747 5751 5756 5760 5765 5770 5775
5789 5785 5781 5777 5773 5769 5765 5761 5757 5753 5749 5745 5741 5737 5733 5730 5727 5724 5722 5720 5719 5717 5716 5717 5717 5718 5720 5721 5724 5727 5730 5734 5738 5742 5747 5751 5757 5762
5780 5776 5772 5768 5764 5759 5755 5751 5747 5742 5738 5734 5730 5727 5723 5719 5716 5713 5711 5709 5708 5706 5704 5704 5705 5706 5707 5709 5711 5714 5717 5720 5724 5728 5733 5738 5743 5748
5770 5766 5762 5758 5754 5749 5745 5741 5736 5732 5727 5723 5719 5715 5712 5708 5705 5702 5700 5698 5696 5695 5693 5692 5693 5693 5695 5696 5698 5701 5703 5707 5711 5715 5720 5724 5729 5734
5760 5756 5752 5747 5743 5738 5734 5729 5725 5720 5716 5711 5707 5703 5700 5697 5694 5691 5689 5686 5685 5683 5682 5681 5681 5681 5682 5684 5685 5687 5690 5693 5697 5701 5705 5710 5715 5721
5749 5744 5740 5736 5731 5726 5722 5718 5713 5708 5704 5700 5696 5692 5688 5685 5682 5680 5677 5675 5673 5672 5670 5669 5669 5669 5670 5671 5673 5674 5677 5680 5683 5687 5691 5696 5701 5707
5737 5733 5728 5723 5718 5714 5710 5705 5700 5695 5691 5688 5684 5680 5676 5673 5670 5667 5665 5663 5661 5660 5658 5657 5656 5656 5657 5658 5660 5661 5664 5666 5669 5673 5677 5682 5688 5693
5724 5720 5715 5710 5705 5701 5696 5691 5687 5682 5678 5675 5671 5668 5664 5660 5658 5655 5653 5651 5649 5648 5646 5645 5644 5644 5644 5645 5646 5648 5650 5653 5656 5660 5664 5668 5674 5679
5710 5706 5701 5696 5692 5687 5682 5677 5673 5668 5664 5661 5657 5654 5651 5648 5645 5643 5640 5638 5637 5635 5634 5633 5632 5631 5631 5632 5634 5636 5638 5640 5643 5646 5650 5655 5660 5666
5696 5691 5687 5682 5677 5672 5667 5663 5659 5655 5651 5647 5644 5641 5638 5636 5633 5631 5628 5626 5624 5623 5622 5621 5620 5619 5619 5621 5622 5623 5625 5628 5631 5634 5637 5642 5648 5653
5680 5675 5671 5666 5661 5656 5652 5648 5644 5641 5637 5633 5631 5628 5625 5623 5621 5619 5617 5615 5613 5611 5610 5609 5608 5607 5608 5610 5611 5612 5614 5616 5618 5622 5626 5631 5636 5641
5665 5660 5655 5649 5645 5640 5636 5633 5629 5626 5623 5620 5617 5615 5613 5611 5609 5607 5605 5603 5602 5600 5599 5598 5598 5597 5597 5598 5600 5601 5603 5605 5608 5611 5615 5619 5624 5629
5649 5643 5638 5633 5628 5624 5620 5617 5614 5611 5609 5607 5604 5603 5601 5599 5597 5596 5594 5593 5591 5590 5589 5588 5588 5587 5587 5587 5589 5591 5593 5595 5598 5600 5604 5608 5613 5618
5633 5627 5622 5617 5612 5608 5605 5603 5600 5598 5596 5594 5592 5591 5590 5588 5586 5585 5584 5582 5581 5580 5579 5578 5578 5577 5577 5578 5579 5581 5583 5585 5587 5590 5594 5598 5602 5608
5617 5612 5607 5602 5598 5595 5592 5589 5588 5586 5584 5582 5581 5580 5579 5577 5576 5575 5574 5572 5571 5570 5570 5569 5568 5568 5568 5569 5570 5571 5573 5575 5578 5581 5585 5588 5592 5597